Regional Weather Roundup
Issued by NWS Charleston, WV

Home | Current Version | Previous Version | Text Only | Print | Product List | Glossary Off
Versions: 1 2 3 4 5 6 7 8 9 10 11 12 13 14 15 16 17 18 19 20 21 22 23 24 25 26 27 28

000
ASUS41 KRLX 230410
RWRRLX
West Virginia Regional Weather Roundup
National Weather Service Charleston WV
1200 AM EDT WED AUG 23 2017

Note: "fair" indicates few or no clouds below 12,000 feet with no
significant weather and/or obstructions to visibility.

WVZ003-230500-
Northern Panhandle of West Virginia

CITY           SKY/WX    TMP DP  RH WIND       PRES   REMARKS
WHEELING       MOCLDY    71  67  87 SW6       29.88F
$$

WVZ009-230500-
Northwest West Virginia

CITY           SKY/WX    TMP DP  RH WIND       PRES   REMARKS
PARKERSBURG    MOCLDY    72  70  93 W6        29.93S
$$

WVZ006-230500-
Western West Virginia

CITY           SKY/WX    TMP DP  RH WIND       PRES   REMARKS
HUNTINGTON     CLOUDY    72  70  93 SW3       29.93S
$$

WVZ015-230500-
West Central West Virginia

CITY           SKY/WX    TMP DP  RH WIND       PRES   REMARKS
CHARLESTON     LGT RAIN  72  69  90 SW5       29.94S
$$

WVZ022-031-230500-
North Central West Virginia

CITY           SKY/WX    TMP DP  RH WIND       PRES   REMARKS
CLARKSBURG     HVY RAIN  72  69  90 W13       29.91F FOG
MORGANTOWN     LGT RAIN  70  68  93 SW5       29.91F
$$

WVZ025-035-042-045-230500-
Southern West Virginia

CITY           SKY/WX    TMP DP  RH WIND       PRES   REMARKS
BECKLEY        MOCLDY    69  67  93 NW5       30.02S
LOGAN          CLOUDY    72  72 100 CALM      29.98F FOG
BLUEFIELD      CLOUDY    69  62  78 SW3       30.04F
LEWISBURG      CLOUDY    70  66  88 W5        29.99F
$$

WVZ047-230500-
Northern Mountains of West Virginia

CITY           SKY/WX    TMP DP  RH WIND       PRES   REMARKS
ELKINS         LGT RAIN  71  66  84 VRB7      29.96F
$$

WVZ052-230500-
Eastern Panhandle of West Virginia

CITY           SKY/WX    TMP DP  RH WIND       PRES   REMARKS
MARTINSBURG    RAIN      73  69  87 W13       29.85F FOG
PETERSBURG     CLOUDY    73  72  97 CALM      29.89F
$$




USA.gov is the U.S. government's official web portal to all federal, state and local government web resources and services.